Dewpoint
56 56 56 56 56 56 56 56 56 56 56 56 56 56 56 56 57 57 57 56 57 56 56 56 56 56 56 56 56 56 57 55 53 52 49 40 48 53 65 61 66 66 65 51 46 47 45 46 46 47 49 52 53 55 57 60 63 63 59 55 53 54 55 58 57 58 62 60 62 64 63 63 60 63 65 66 56 58 55 55 57 59 60 61 63 64 65 66
56 56 56 56 56 56 56 56 56 56 56 56 56 56 56 57 57 57 57 57 56 56 56 56 56 56 56 56 56 57 56 55 51 52 50 55 58 60 67 68 68 68 63 45 38 45 45 44 45 46 47 50 55 56 58 58 61 60 57 55 53 56 57 60 59 60 62 61 62 64 64 64 63 61 64 57 55 54 54 56 58 60 61 63 63 64 65 65
56 56 56 56 56 56 56 56 56 56 56 56 56 56 57 57 57 56 56 56 56 56 56 56 56 56 56 56 56 57 56 52 52 49 48 66 62 63 65 69 67 69 45 38 37 44 47 45 44 44 47 48 51 54 57 54 60 61 58 55 55 58 60 62 61 62 64 64 62 64 65 65 65 65 67 57 56 55 54 57 59 60 60 62 63 63 64 65
56 56 56 56 56 56 56 56 56 56 56 56 56 57 57 56 56 56 56 56 56 56 55 55 56 56 56 56 57 56 54 52 41 40 48 67 65 69 66 65 71 67 33 37 39 42 42 34 38 44 45 45 46 53 53 54 57 61 58 55 57 62 61 62 63 64 64 65 63 64 65 63 65 64 64 61 55 54 55 58 59 60 61 62 62 63 63 64
56 56 56 56 56 56 56 56 56 56 56 56 56 56 56 56 56 56 55 55 56 55 55 55 56 56 56 57 57 56 52 36 39 45 48 71 68 66 69 68 71 60 30 30 28 28 28 30 35 40 41 42 47 48 49 51 55 61 61 64 63 63 62 64 64 65 64 65 64 64 62 62 66 64 63 60 53 53 56 58 60 61 61 62 62 63 63 63
56 56 56 56 56 56 56 56 56 56 56 56 56 56 56 56 56 55 55 55 56 56 55 56 56 56 57 57 56 55 39 36 40 36 73 73 72 65 68 70 72 58 31 25 25 29 27 33 33 38 41 41 43 46 45 49 61 56 62 64 64 63 63 63 65 65 65 64 63 62 64 65 63 63 63 62 55 57 57 59 61 61 62 62 62 62 62 63
56 55 55 55 56 55 56 56 56 56 56 56 56 55 56 56 55 55 55 55 55 55 56 55 56 56 57 57 54 52 34 25 42 38 68 74 72 67 68 68 69 37 26 24 24 22 30 34 34 39 44 42 42 43 57 60 63 61 60 64 63 64 63 65 65 65 64 64 62 64 65 63 62 58 63 62 62 59 58 60 61 62 62 62 61 61 62 62
55 55 55 55 55 55 55 55 55 55 55 55 55 55 55 55 55 55 55 55 55 55 55 55 56 56 57 54 50 41 41 30 30 52 74 73 70 66 65 61 37 28 24 22 22 18 31 32 37 43 42 40 41 54 61 62 63 62 62 65 65 65 64 64 64 64 65 65 64 64 63 64 63 62 62 61 60 57 59 60 61 61 61 61 61 61 62 62
55 55 55 55 55 55 55 55 55 55 55 55 55 55 55 55 54 54 54 54 55 55 55 55 56 56 56 54 48 30 26 38 46 69 65 65 66 65 57 52 32 27 25 22 21 19 32 34 37 42 40 39 39 51 61 58 58 63 64 64 64 64 64 65 64 64 64 65 65 63 63 63 63 63 61 62 58 58 58 59 60 60 60 60 61 61 61 62
55 55 55 55 55 55 55 55 56 55 55 55 55 55 55 55 54 54 55 55 55 54 55 55 56 56 54 51 39 15 28 44 63 60 60 59 56 53 46 40 31 26 21 24 25 26 33 37 41 45 44 42 40 41 59 55 57 65 64 65 64 64 65 65 64 64 65 65 65 61 60 60 64 59 55 60 57 57 57 57 58 59 59 60 60 61 61 61
55 55 55 55 55 55 55 55 55 55 55 55 54 54 54 55 54 54 55 55 55 54 55 56 56 55 53 51 20 6 22 52 57 54 54 48 44 43 38 34 27 22 17 26 23 25 32 37 42 42 44 40 50 60 58 61 65 64 64 64 64 64 65 65 64 64 65 62 66 63 60 61 63 61 56 57 56 57 56 56 58 58 59 59 60 60 61 61
55 55 55 55 55 55 55 55 55 55 55 55 55 54 54 54 55 55 55 55 56 55 56 56 57 55 53 47 25 9 27 51 54 51 48 39 40 41 36 32 25 19 15 20 24 24 32 41 43 43 41 40 58 63 63 64 64 64 63 61 62 63 63 64 64 65 65 62 64 64 60 58 60 56 58 56 56 56 56 56 57 58 58 59 59 59 60 60
55 55 55 54 55 55 55 55 55 55 55 54 54 54 55 55 55 55 55 56 56 56 56 56 57 55 52 31 37 36 40 34 32 51 46 38 36 34 33 32 25 22 17 13 24 27 34 38 42 42 43 36 54 55 64 63 62 62 61 61 59 59 59 63 65 66 64 64 66 64 51 52 55 56 57 55 56 55 55 56 56 56 57 58 58 58 59 59
54 54 54 54 55 55 55 55 55 55 54 54 54 54 54 54 55 56 56 56 57 56 57 58 56 55 49 39 38 45 47 43 41 41 45 43 33 30 32 27 30 27 27 23 24 28 34 39 41 37 37 36 59 64 63 60 60 59 61 59 56 54 54 63 64 65 62 64 64 64 50 52 55 56 56 55 56 55 54 55 55 56 56 57 57 57 57 58
54 54 55 55 55 55 55 55 54 54 54 54 54 54 54 54 55 57 57 57 57 55 57 57 56 52 46 44 47 49 61 57 45 41 43 38 30 23 25 23 22 25 24 25 25 29 29 29 32 32 30 53 62 61 58 58 58 58 54 52 55 53 54 62 65 64 59 61 61 58 52 53 54 54 56 56 55 56 54 54 54 55 56 56 56 56 56 56
54 54 55 55 55 55 54 54 54 54 54 54 53 53 54 54 56 57 58 58 56 56 56 55 55 52 46 40 33 54 40 32 34 45 40 40 28 21 21 19 19 19 23 25 24 23 24 31 28 30 43 60 58 57 57 56 56 55 52 52 52 54 55 58 62 62 61 60 61 59 54 55 54 54 56 55 55 55 54 54 54 54 55 55 55 55 55 54
54 54 54 54 55 55 54 54 54 54 53 53 53 54 54 55 57 58 58 58 56 57 56 51 54 54 29 32 42 38 36 35 29 19 33 38 29 26 19 18 17 17 22 25 30 34 33 30 34 28 28 44 56 56 54 50 51 52 55 52 55 54 56 54 60 61 61 60 58 62 58 56 56 54 55 55 55 55 53 53 54 54 54 54 54 54 52 53
54 54 54 54 55 54 54 54 54 53 53 53 53 53 53 56 55 56 57 58 57 55 54 54 53 43 32 38 29 31 37 36 26 20 23 34 32 26 20 19 19 20 26 26 32 28 32 29 29 25 25 38 55 54 51 49 51 52 51 51 52 56 56 56 56 59 60 60 58 60 59 59 59 58 55 56 56 54 53 53 53 54 54 53 53 52 51 52
54 54 54 55 54 54 54 54 54 53 53 54 53 54 57 56 55 53 52 53 48 41 33 45 40 30 20 25 33 35 36 37 29 21 21 32 34 26 24 24 22 24 27 27 26 29 31 29 27 25 22 37 51 52 49 50 52 53 53 52 54 54 55 55 59 60 60 59 58 58 57 59 59 60 61 62 59 53 52 53 54 53 52 52 52 51 51 52
54 54 54 55 55 54 54 54 53 53 53 52 49 51 47 32 35 40 52 51 45 36 33 33 40 36 36 35 34 34 36 38 27 29 34 35 32 27 24 22 28 27 27 26 28 30 30 28 25 23 23 27 42 48 50 46 53 53 53 53 54 55 56 59 60 60 62 59 59 59 59 59 58 59 62 63 63 56 52 52 53 53 52 51 51 50 51 52
54 54 55 55 54 54 54 53 53 53 52 51 50 39 28 31 31 30 34 39 46 43 38 36 40 38 33 34 36 36 34 33 33 34 33 39 34 31 31 24 26 25 26 27 28 31 29 29 26 24 24 23 24 30 37 34 37 52 52 53 53 55 54 58 59 61 60 58 57 60 58 59 58 60 62 62 62 56 51 51 52 52 51 51 50 50 51 52
54 54 54 54 54 54 53 53 53 52 52 49 51 36 35 33 33 33 35 32 33 39 42 40 41 40 41 40 38 39 39 35 28 28 29 30 29 31 27 26 25 23 25 27 29 26 29 27 27 26 24 24 23 24 26 28 33 51 51 52 53 54 57 59 60 61 60 59 56 58 56 57 59 60 62 63 63 63 63 51 52 51 51 51 50 50 51 52
54 54 54 54 54 53 53 52 52 52 51 50 42 44 42 39 42 38 35 33 32 34 37 42 41 40 40 41 41 40 37 32 26 26 29 27 26 26 25 24 24 25 24 26 25 28 24 24 27 27 25 23 23 20 21 24 51 51 50 51 50 54 53 51 59 59 60 58 56 57 54 57 60 59 60 63 66 65 65 63 54 53 52 51 50 50 50 53
54 54 54 54 54 53 52 52 52 51 49 47 43 40 41 40 38 38 34 32 32 32 31 32 35 39 38 33 34 34 28 24 24 23 37 26 23 25 25 24 23 22 21 23 26 24 23 23 24 26 23 22 21 20 18 18 43 51 50 49 51 55 54 52 56 60 59 59 59 57 55 54 56 56 58 61 66 66 65 63 58 56 54 53 52 52 52 55
54 54 54 54 54 53 51 51 49 49 49 48 46 45 44 44 45 39 35 33 34 33 35 34 34 38 35 36 24 20 24 24 23 25 34 25 23 23 22 26 23 21 21 22 23 23 20 21 21 18 21 18 15 18 16 17 29 48 50 49 51 55 56 58 58 58 56 55 58 55 49 49 55 56 57 58 61 62 64 61 55 57 57 54 52 52 53 57
54 54 54 54 53 52 51 50 50 49 47 36 34 38 40 43 40 39 36 33 30 33 27 28 27 29 27 25 24 23 22 21 23 23 31 26 31 21 23 19 22 19 20 20 19 19 20 21 17 16 16 14 11 23 17 17 21 44 47 50 50 55 57 57 57 56 52 51 55 57 49 46 53 54 56 58 60 60 62 62 57 58 58 55 52 52 52 57
54 54 54 54 53 52 42 46 48 47 29 26 34 44 43 45 48 37 32 29 23 33 25 24 16 10 18 15 22 19 15 18 23 29 31 43 25 34 23 21 22 19 20 18 18 13 16 17 15 16 15 12 11 14 15 17 27 33 45 50 53 55 57 57 56 54 55 57 58 58 56 48 48 52 55 57 58 59 59 60 61 59 59 57 52 52 52 57
54 54 53 53 52 51 48 49 47 40 32 33 46 45 45 48 46 38 35 24 16 20 15 9 10 22 25 20 19 17 20 27 29 30 29 34 30 27 26 25 24 17 15 14 13 15 13 13 13 13 14 12 12 12 15 18 24 28 42 52 53 55 56 57 55 54 55 53 51 55 57 48 47 52 56 57 56 57 58 59 60 61 60 60 54 52 53 56
54 54 53 52 52 51 51 51 49 43 43 48 47 46 45 49 37 36 32 23 22 22 19 12 18 21 21 17 18 17 16 33 25 32 34 31 31 27 24 25 25 24 25 24 20 21 17 9 9 12 11 11 12 11 15 21 19 46 56 56 56 56 55 55 52 52 51 49 48 52 55 47 46 52 55 58 56 55 57 58 59 61 60 61 58 55 54 55
54 53 52 52 51 51 50 51 48 48 49 49 48 47 47 41 38 35 26 22 16 12 17 18 17 16 15 13 14 16 14 16 35 34 32 29 28 29 28 29 26 26 24 26 23 23 22 32 37 11 10 11 11 10 14 20 46 53 52 52 51 50 50 52 53 52 49 43 45 52 55 51 45 52 54 55 54 55 56 57 59 61 61 61 61 56 54 54
53 52 51 51 49 50 50 46 47 50 50 48 47 43 41 41 39 32 23 19 27 21 17 17 16 16 13 14 14 17 17 26 32 32 28 29 26 26 26 24 24 23 24 23 21 21 20 19 19 23 20 15 11 17 40 37 54 53 52 50 50 49 51 51 50 51 43 40 48 52 54 53 45 48 54 55 55 56 56 56 57 59 61 61 62 58 54 54
51 50 51 51 51 51 43 35 46 49 49 47 45 39 37 33 34 25 22 34 21 20 13 14 16 16 14 16 16 16 16 22 31 32 28 25 28 23 23 24 27 20 22 23 18 18 13 13 13 13 43 14 23 38 46 51 53 52 51 49 46 43 46 43 46 43 42 41 50 54 55 51 49 50 54 56 56 58 57 57 57 59 60 61 62 60 56 55
50 50 50 51 52 51 50 48 50 49 47 47 42 39 36 31 20 30 31 31 24 19 13 15 12 13 16 15 15 17 23 22 32 32 28 23 24 21 22 23 23 20 19 27 18 14 12 13 14 13 15 29 26 43 45 47 49 51 48 45 43 39 37 35 40 42 41 46 53 53 55 50 53 52 53 54 57 58 57 57 57 59 59 61 64 61 57 56
50 50 49 51 51 51 51 52 51 50 47 49 40 40 36 26 24 53 37 30 24 26 19 15 14 12 15 13 13 17 18 27 33 31 26 23 18 20 18 19 21 20 22 27 15 14 15 11 11 13 10 22 22 44 47 46 49 53 52 45 44 41 39 35 38 38 39 43 50 55 50 47 48 51 57 57 57 59 58 57 58 60 59 60 64 66 59 56
50 50 50 51 51 52 52 51 51 51 48 39 39 37 30 28 34 32 30 26 22 20 17 15 12 18 16 25 27 23 23 26 33 33 27 16 14 17 17 16 21 20 22 19 25 25 13 13 13 14 13 25 25 36 47 49 50 51 52 45 42 40 42 37 41 42 46 48 48 50 48 51 50 59 61 62 61 58 60 58 59 59 60 60 62 65 64 57
50 51 50 49 50 50 51 52 50 49 41 41 39 34 30 34 25 30 26 26 27 24 23 14 20 18 25 27 30 28 30 23 26 29 26 20 17 16 19 17 15 18 16 15 34 23 28 21 17 23 24 24 26 35 46 45 39 40 38 40 40 42 46 45 47 47 46 43 45 50 49 50 54 55 58 60 59 58 59 59 59 59 60 60 59 62 64 60
49 52 48 51 51 52 51 51 50 47 42 41 36 29 36 37 34 32 48 30 26 27 18 14 14 19 29 27 34 29 27 23 29 25 26 28 25 27 24 20 18 16 16 16 16 25 18 18 21 21 20 24 29 30 40 30 41 28 35 37 33 45 45 42 39 40 38 37 37 48 46 46 46 45 58 59 57 58 58 59 60 60 60 59 58 59 62 61
51 52 54 54 48 51 51 50 47 43 41 39 36 46 43 35 36 33 31 29 28 24 15 18 14 21 23 24 24 32 31 21 23 25 29 30 28 32 25 23 24 19 18 18 17 25 23 19 20 23 24 24 26 27 27 27 29 32 19 21 34 33 37 38 41 36 34 35 36 41 45 47 48 47 56 57 57 57 58 59 60 60 59 59 58 59 61 61
51 47 34 37 50 51 49 50 44 43 40 36 37 34 46 40 37 32 32 31 28 25 12 14 16 21 24 24 28 29 32 20 24 26 29 29 24 27 25 25 25 23 21 21 16 27 30 19 21 25 25 24 21 24 26 22 22 28 24 20 27 34 37 36 37 39 36 36 36 36 41 39 48 49 55 57 58 57 58 59 60 60 60 59 58 59 61 60
46 36 34 42 49 49 50 46 42 39 37 29 33 39 36 33 32 32 31 30 24 15 20 17 20 18 21 24 26 23 29 23 24 23 37 36 24 25 27 26 23 21 23 24 21 35 24 26 22 23 25 22 21 24 26 22 20 19 18 19 18 30 33 39 41 37 36 38 35 36 34 38 43 52 55 57 58 58 59 59 60 60 60 59 58 60 61 60
50 42 40 45 49 49 46 41 37 37 36 38 37 34 34 32 32 30 30 27 19 16 12 15 17 17 19 22 22 24 26 29 25 22 28 27 22 27 29 27 26 21 24 25 26 29 28 29 23 30 19 20 18 22 21 22 18 21 18 19 17 29 31 31 34 37 40 36 33 33 34 41 47 59 57 57 59 60 60 60 60 60 61 60 60 63 61 61
32 25 28 46 49 46 41 38 37 40 35 35 31 33 28 42 34 29 25 20 16 12 15 17 18 18 20 20 18 23 23 22 21 23 25 26 25 26 28 32 23 23 23 25 27 27 28 35 27 22 21 19 21 23 24 21 21 25 20 21 18 29 35 34 29 32 39 42 44 39 36 38 52 59 59 59 59 60 61 61 60 61 61 61 64 64 63 62
38 27 32 45 48 36 33 33 47 38 33 33 33 29 31 30 31 27 21 18 14 15 14 14 16 16 17 20 21 20 21 21 20 20 23 31 27 29 33 25 23 25 24 22 31 26 60 29 25 34 34 34 31 29 26 23 18 20 17 16 18 22 29 32 34 36 38 41 38 37 35 37 51 58 59 59 60 60 61 61 61 62 62 63 63 64 64 65
42 44 41 42 42 38 35 33 34 35 36 35 34 29 30 27 27 23 18 16 22 13 14 15 14 16 18 21 20 19 23 20 23 20 23 27 26 25 26 20 22 21 23 21 27 27 30 32 29 28 30 30 28 29 26 26 32 28 25 22 22 16 22 34 37 40 38 40 39 35 31 35 47 58 59 59 61 62 61 62 62 62 63 63 63 64 63 64
46 48 48 47 49 37 35 33 33 31 32 28 28 27 25 27 26 19 17 15 19 13 16 16 15 16 17 20 23 24 23 19 24 21 20 24 22 30 22 21 20 25 32 36 55 32 25 32 34 27 26 24 24 23 24 24 26 38 32 30 45 24 17 21 27 34 31 38 39 35 34 39 49 55 58 59 59 60 62 62 63 63 63 63 64 63 63 64
43 29 37 39 39 35 37 35 30 30 30 31 27 27 29 27 26 18 16 16 16 17 14 18 18 19 20 20 21 25 24 24 20 24 29 25 26 28 27 24 22 31 52 58 49 40 33 39 39 36 33 29 28 32 33 38 32 39 40 45 46 46 40 27 31 33 30 36 38 39 38 45 53 54 57 58 58 60 62 62 62 63 63 63 64 64 64 64
47 37 39 41 45 38 34 36 30 29 29 32 28 35 31 28 26 19 20 20 18 18 21 23 23 23 25 24 25 27 29 27 30 29 27 27 29 27 30 30 20 38 56 43 45 37 37 32 33 40 37 32 32 35 42 45 43 45 46 47 48 47 46 31 28 28 37 38 33 41 45 45 48 53 56 57 58 59 60 62 62 63 63 63 63 64 66 64
37 41 44 48 39 37 40 38 42 43 42 33 32 35 28 25 25 28 22 21 22 20 17 26 24 26 28 27 30 27 29 32 31 27 31 30 32 26 29 28 23 35 39 24 39 34 33 32 37 30 30 33 36 38 43 44 43 43 43 46 48 49 47 47 47 42 40 32 30 38 48 46 49 54 56 58 58 59 60 61 62 63 64 64 63 64 64 64
47 47 48 51 46 46 42 45 47 45 40 36 36 41 29 25 23 24 21 19 21 22 23 24 23 25 29 31 28 30 32 26 24 34 31 28 28 30 26 31 27 25 22 27 30 42 29 30 36 30 35 33 34 39 42 42 41 42 41 43 47 49 49 48 48 50 46 43 42 46 49 49 52 55 57 59 60 60 61 62 63 64 63 63 64 64 64 64
49 49 49 53 52 50 50 45 41 39 38 41 32 30 28 25 24 23 22 21 24 21 24 20 22 26 29 32 37 29 30 28 27 25 30 30 23 32 29 27 23 23 23 26 32 31 28 33 42 41 33 31 32 38 41 41 41 41 41 42 44 49 50 51 51 52 52 49 51 50 50 50 55 57 59 61 61 62 62 62 62 63 63 64 64 65 64 64
48 52 53 50 48 48 50 45 43 43 36 34 29 29 33 26 26 24 27 24 20 21 24 22 24 28 32 32 33 31 29 33 33 26 25 28 23 26 25 26 24 27 25 24 29 31 28 25 37 38 38 30 32 34 34 41 41 40 41 40 42 49 49 50 51 52 50 49 49 48 47 50 56 59 60 61 61 61 61 62 63 63 64 64 65 65 65 65
50 52 54 51 47 53 45 46 46 37 35 35 38 37 35 30 27 29 29 28 22 20 20 24 27 27 31 32 31 32 30 28 28 25 22 21 22 28 27 25 25 29 27 26 33 28 32 29 29 32 34 36 31 34 38 39 37 37 40 40 42 50 50 50 52 53 53 53 49 49 51 56 57 59 59 60 61 61 62 62 63 63 63 64 64 65 65 65